Lee's Summit, MO

2:34 PM CDT on October 18, 2017 (GMT -0500)
Lee's Summit Municipal

Weather History for KLXT - November, 2012

Change the Weather History Date:

Sunday, November 18, 2012

  Actual Average (KMKC) Record (KMKC)
Temperature  
Mean Temperature 52 °F -  
Max Temperature 61 °F 52 °F 77 °F (1999)
Min Temperature 42 °F 35 °F 12 °F (2014)
Degree Days  
Heating Degree Days 14    
Growing Degree Days 2 (Base 50)    
Moisture  
Dew Point 31 °F    
Average Humidity 45    
Maximum Humidity 58    
Minimum Humidity 36    
Precipitation  
Precipitation 0.00 in - - ()
Sea Level Pressure  
Sea Level Pressure 30.23 in    
Wind  
Wind Speed 9 mph (South)    
Max Wind Speed 15 mph    
Max Gust Speed 21 mph    
Visibility 10 miles    
Events      
Averages and records for this station are not official NWS values.
T = Trace of Precipitation, MM = Missing Value Source: NWS Daily Summary

Daily Weather History Graph

Daily Weather History Graph

Search for Another Location

Airport or City:

Trip Planner

Search our weather history database for the weather conditions in past years. The results will help you decide how hot, cold, wet, or windy it might be!

Date:

Astronomy

Nov. 18, 2012 Rise Set
Actual Time 7:04 AM CST 5:01 PM CST
Civil Twilight 6:35 AM CST 5:29 PM CST
Nautical Twilight 6:02 AM CST 6:02 PM CST
Astronomical Twilight 5:31 AM CST 6:33 PM CST
Moon 11:32 AM CST 10:20 PM CST
Length of Visible Light 10h 54m
Length of Day
9h 56m
Waxing Crescent, 30% of the Moon is Illuminated
Nov 18
Waxing Crescent
Nov 20
First Quarter
Nov 28
Full
Dec 6
Last Quarter
Dec 13
New

Hourly Weather History & Observations

Time (CST) Temp. Windchill Dew Point Humidity Pressure Visibility Wind Dir Wind Speed Gust Speed Precip Events Conditions
12:53 AM 44.1 °F 40.1 °F 28.9 °F 55% 30.30 in 10.0 mi South 6.9 mph - N/A   Clear
1:53 AM 45.0 °F 40.6 °F 28.9 °F 53% 30.30 in 10.0 mi South 8.1 mph - N/A   Clear
2:53 AM 44.1 °F 39.5 °F 28.0 °F 53% 30.29 in 10.0 mi South 8.1 mph - N/A   Clear
3:53 AM 44.1 °F 39.5 °F 28.0 °F 53% 30.28 in 10.0 mi South 8.1 mph - N/A   Clear
4:53 AM 43.0 °F 37.7 °F 28.0 °F 56% 30.28 in 10.0 mi South 9.2 mph - N/A   Clear
5:53 AM 42.1 °F 37.7 °F 28.0 °F 58% 30.28 in 10.0 mi South 6.9 mph - N/A   Clear
6:53 AM 42.1 °F 36.1 °F 28.0 °F 58% 30.28 in 10.0 mi South 10.4 mph - N/A   Clear
7:53 AM 43.0 °F 37.7 °F 28.0 °F 56% 30.28 in 10.0 mi South 9.2 mph - N/A   Clear
8:53 AM 48.0 °F - 28.0 °F 46% 30.29 in 10.0 mi South 12.7 mph 20.7 mph N/A   Clear
9:53 AM 51.1 °F - 30.0 °F 44% 30.28 in 10.0 mi South 12.7 mph - N/A   Clear
10:53 AM 55.0 °F - 32.0 °F 42% 30.27 in 10.0 mi SSW 11.5 mph 19.6 mph N/A   Partly Cloudy
11:53 AM 59.0 °F - 34.0 °F 39% 30.24 in 10.0 mi SSW 13.8 mph 19.6 mph N/A   Clear
12:53 PM 59.0 °F - 34.0 °F 39% 30.22 in 10.0 mi SSW 15.0 mph 20.7 mph N/A   Clear
1:53 PM 61.0 °F - 34.0 °F 36% 30.19 in 10.0 mi South 11.5 mph 18.4 mph N/A   Clear
2:53 PM 60.1 °F - 33.1 °F 36% 30.17 in 10.0 mi South 9.2 mph 17.3 mph N/A   Clear
3:53 PM 59.0 °F - 33.1 °F 38% 30.18 in 10.0 mi South 9.2 mph - N/A   Clear
4:53 PM 57.0 °F - 34.0 °F 42% 30.18 in 10.0 mi SSE 4.6 mph - N/A   Clear
5:53 PM 55.9 °F - 33.1 °F 42% 30.18 in 10.0 mi SSE 5.8 mph - N/A   Clear
6:53 PM 55.9 °F - 32.0 °F 40% 30.18 in 10.0 mi SE 5.8 mph - N/A   Clear
7:53 PM 55.0 °F - 30.9 °F 40% 30.19 in 10.0 mi SE 4.6 mph - N/A   Partly Cloudy
8:53 PM 55.9 °F - 30.9 °F 39% 30.18 in 10.0 mi SSE 9.2 mph - N/A   Mostly Cloudy
9:53 PM 55.9 °F - 30.9 °F 39% 30.17 in 10.0 mi South 11.5 mph - N/A   Overcast
10:53 PM 55.0 °F - 32.0 °F 42% 30.18 in 10.0 mi South 10.4 mph - N/A   Overcast
11:53 PM 55.0 °F - 32.0 °F 42% 30.16 in 10.0 mi SSE 12.7 mph 19.6 mph N/A   Overcast